Location: Unspecified
(0.0000°N, 0.0000°E)
Time: 12:28:16
(UTC+00:00)

Amsat-Oscar-6 - Pass Details

Date: 26 April 2019
Orbit: 1448 x 1455 km, 101.8° (Epoch: 20 May)

Event Time Altitude Azimuth Distance (km) Brightness Sun altitude
Rises 03:22:55 0° 12° (NNE) 4,532 ? -37.5°
Reaches altitude 10° 03:25:41 10° 11° (N) 3,557 ? -36.9°
Enters shadow 03:33:00 69° 337° (NNW) 1,533 ? -35.1°
